Regional Weather Roundup
Issued by NWS

Home | Current Version | Previous Version | Text Only | Print | Product List | Glossary On
Versions: 1 2 3 4 5 6 7 8 9 10 11 12 13 14 15 16 17 18 19 20 21 22 23 24 25 26 27 28 29 30 31 32 33 34 35 36 37 38 39 40 41 42 43 44 45 46 47 48 49 50
000
ASUS44 KEWX 210610
RWRTX
SOUTH TEXAS REGIONAL WEATHER ROUNDUP
NATIONAL WEATHER SERVICE AUSTIN/SAN ANTONIO TX
100 AM CDT TUE OCT 21 2014

NOTE: "FAIR" INDICATED FEW OR NO CLOUDS BELOW 12,000 FEET WITH NO
SIGNIFICANT WEATHER AND/OR OBSTRUCTIONS TO VISIBILITY.

* - THESE STATIONS ARE NOT NWS OR FAA STATIONS...AND ARE NOT SUBJECT
    TO NWS AND FAA QUALITY CONTROL.

TXZ171-172-183>190-210700-
TEXAS HILL COUNTRY AND EDWARDS PLATEAU

CITY           SKY/WX    TMP DP  RH WIND       PRES   REMARKS
JUNCTION       CLEAR     60  54  80 CALM      30.06F
6HR MIN TEMP:  60; 6HR MAX TEMP:  76;

*LLANO         CLEAR     63  57  82 CALM      30.09S
BURNET         CLEAR     64  56  75 CALM      30.07F
6HR MIN TEMP:  63; 6HR MAX TEMP:  74;

*HORSESHOE BAY CLEAR     63  57  82 CALM      30.05F
6HR MIN TEMP:  63; 6HR MAX TEMP:  73;

*KERRVILLE     CLEAR     59  56  89 CALM      30.06F
6HR MIN TEMP:  59; 6HR MAX TEMP:  73;

*FREDERICKSBRG CLEAR     58  56  91 CALM      30.06F
6HR MIN TEMP:  58; 6HR MAX TEMP:  71;

*ROCKSPRINGS   CLEAR     64  55  72 CALM      30.09S
*BOERNE STAGE  PTCLDY    59  52  77 CALM      30.06S
*CASTROVILLE   PTCLDY    67  55  65 CALM      30.04R
HONDO          CLEAR     65  56  72 NE6       30.04S
6HR MIN TEMP:  62; 6HR MAX TEMP:  77;

*UVALDE        CLEAR     65  58  77 NE3       30.03S
6HR MIN TEMP:  65; 6HR MAX TEMP:  79;

DEL RIO        CLOUDY    72  59  63 E6        30.00F
6HR MIN TEMP:  72; 6HR MAX TEMP:  77;

LAUGHLIN AFB   CLOUDY    71  60  67 SE7       30.01F
6HR MIN TEMP:  68; 6HR MAX TEMP:  77;

CARRIZO SPRGS  CLEAR     68  63  83 SE3       30.00S
$$

TXZ173-191>194-202-209-217>225-228-210700-
CENTRAL AND SOUTH CENTRAL TEXAS

CITY           SKY/WX    TMP DP  RH WIND       PRES   REMARKS
GEORGETOWN     PTCLDY    61  57  88 CALM      30.04F
6HR MIN TEMP:  61; 6HR MAX TEMP:  75;

AUSTIN/BERGSTM PTCLDY    60  58  92 CALM      30.03F
6HR MIN TEMP:  59; 6HR MAX TEMP:  75;

AUSTIN/MABRY   PTCLDY    67  60  78 CALM      30.04F
6HR MIN TEMP:  67; 6HR MAX TEMP:  76;

*AUSTIN/EXEC   PTCLDY    64  59  82 CALM      30.04S
*LAGO VISTA    PTCLDY    66  58  75 E6        30.05F
6HR MIN TEMP:  66; 6HR MAX TEMP:  73;

SAN MARCOS     PTCLDY    64  55  72 NE5       30.04S
6HR MIN TEMP:  64; 6HR MAX TEMP:  75;

NEW BRAUNFELS  PTCLDY    67  60  78 NE6       30.01F
6HR MIN TEMP:  67; 6HR MAX TEMP:  78;

RANDOLPH AFB   PTCLDY    67  58  73 NE6       30.02F
6HR MIN TEMP:  67; 6HR MAX TEMP:  77;

PT SAN ANTONIO PTCLDY    70  58  66 E6        30.01S
6HR MIN TEMP:  70; 6HR MAX TEMP:  79;

SAN ANTONIO    MOCLDY    69  59  70 NE5       30.02F
6HR MIN TEMP:  69; 6HR MAX TEMP:  79;

STINSON FIELD  CLEAR     69  58  67 E5        30.00F
6HR MIN TEMP:  68; 6HR MAX TEMP:  80;

*PLEASANTON    CLEAR     66  58  76 CALM      30.02R
6HR MIN TEMP:  65; 6HR MAX TEMP:  79;

*LA GRANGE     MOCLDY    64  62  92 CALM      30.00F
6HR MIN TEMP:  64; 6HR MAX TEMP:  76;

*GIDDINGS      MOCLDY    65  58  79 CALM      30.06F
6HR MIN TEMP:  65; 6HR MAX TEMP:  72;

*GONZALES      MOCLDY    67  61  80 E5        30.01F
6HR MIN TEMP:  67; 6HR MAX TEMP:  78;

$$

TXZ163>164-176>182-195>201-210>213-226-227-235-210700-
SOUTHEAST TEXAS

CITY           SKY/WX    TMP DP  RH WIND       PRES   REMARKS
COLLEGE STN    MOCLDY    65  60  84 E5        30.02F
6HR MIN TEMP:  65; 6HR MAX TEMP:  75;

*BRYAN         MOCLDY    62  60  91 E3        30.03F
6HR MIN TEMP:  62; 6HR MAX TEMP:  72;

*CALDWELL      MOCLDY    63  61  94 CALM      30.06S
*CROCKETT      MOCLDY    57  57 100 CALM      30.06F
*BRENHAM       MOCLDY    65  61  86 CALM      30.03S
6HR MIN TEMP:  65; 6HR MAX TEMP:  75;

HUNTSVILLE     PTCLDY    59  56  89 CALM      30.03F
6HR MIN TEMP:  59; 6HR MAX TEMP:  73;

CONROE         PTCLDY    56  55  97 CALM      30.03F
6HR MIN TEMP:  56; 6HR MAX TEMP:  68;

HOUSTON BUSH   MOCLDY    64  58  80 CALM      30.02S
6HR MIN TEMP:  62; 6HR MAX TEMP:  71;

HOUSTON HOBBY  MOCLDY    67  59  75 CALM      30.00F
6HR MIN TEMP:  67; 6HR MAX TEMP:  75;

*HOUSTON SW AP MOCLDY    60  57  89 CALM      30.02S
6HR MIN TEMP:  60; 6HR MAX TEMP:  69;

PEARLAND       MOCLDY    68  60  75 NE3       30.02S
6HR MIN TEMP:  68; 6HR MAX TEMP:  75;

HOUSTON HOOKS  MOCLDY    65  58  78 NE3       30.02F
6HR MIN TEMP:  65; 6HR MAX TEMP:  74;

ELLINGTON FLD  MOCLDY    68  63  83 NE5       30.02F
SUGAR LAND     MOCLDY    63  59  87 CALM      30.01F
6HR MIN TEMP:  63; 6HR MAX TEMP:  76;

*HOUSTON EXEC  CLOUDY    64 N/A N/A E5        30.03S
*CLEVELAND MUN MOCLDY    56  56  98 CALM      30.04
*WHARTON       CLEAR     63  61  94 CALM      30.01F
6HR MIN TEMP:  63; 6HR MAX TEMP:  75;

*COLUMBUS      FAIR      62  59  90 NE3       30.01F
6HR MIN TEMP:  62; 6HR MAX TEMP:  73;

$$

TXZ214>216-236>238-210700-
THE UPPER TEXAS COAST

CITY           SKY/WX    TMP DP  RH WIND       PRES   REMARKS
*ORANGE        PTCLDY    60  60 100 CALM      30.03S
PORT ARTHUR    PTCLDY    59  57  93 N5        30.01F
6HR MIN TEMP:  59; 6HR MAX TEMP:  72;

GALVESTON      MOCLDY    71  65  81 NE8       30.00F
6HR MIN TEMP:  71; 6HR MAX TEMP:  75;

ANGLETON       CLEAR     64  64 100 N6        30.00S
6HR MIN TEMP:  61; 6HR MAX TEMP:  73;

*BAY CITY        N/A     66  66  99 N3        29.99F FOG
PALACIOS       CLEAR     68  65  90 NE7       29.99F
6HR MIN TEMP:  68; 6HR MAX TEMP:  77;

$$

TXZ229>234-239>247-210700-
TEXAS COASTAL BEND AND RIO GRANDE PLAINS

CITY           SKY/WX    TMP DP  RH WIND       PRES   REMARKS
VICTORIA       CLEAR     66  63  90 NE7       30.00F
6HR MIN TEMP:  66; 6HR MAX TEMP:  76;

*BEEVILLE      CLEAR     69  68  97 E3        29.99F
6HR MIN TEMP:  69; 6HR MAX TEMP:  75;

ROCKPORT       CLEAR     75  69  81 NE8       29.97F
6HR MIN TEMP:  75; 6HR MAX TEMP:  77;

*PORT ARANSAS  MOCLDY    76  70  82 E12G17    29.96F
6HR MIN TEMP:  75; 6HR MAX TEMP:  76;

*PORT LAVACA   CLEAR     71  67  87 E8        29.99F
6HR MIN TEMP:  71; 6HR MAX TEMP:  76;

*INGLESIDE     PTCLDY    75  71  86 NE7       29.96F
CORPUS CHRISTI PTCLDY    75  71  87 E10       29.96F
6HR MIN TEMP:  74; 6HR MAX TEMP:  76;

CORPUS NAS     CLEAR     76  73  91 E12       29.95F
6HR MIN TEMP:  74; 6HR MAX TEMP:  76;

*ROBSTOWN      NOT AVBL
ALICE          CLEAR     70  69  97 NE7       29.97F FOG
6HR MIN TEMP:  70; 6HR MAX TEMP:  74;

KINGSVILLE NAS PTCLDY    72  71  97 NE7       29.96F
6HR MIN TEMP:  71; 6HR MAX TEMP:  75;

COTULLA        CLEAR     72  64  76 SE7       30.00S
6HR MIN TEMP:  72; 6HR MAX TEMP:  82;

*FAITH RANCH   MOCLDY    72  64  78 SE8       30.00F
LAREDO         CLEAR     72  67  84 CALM      30.01S
6HR MIN TEMP:  72; 6HR MAX TEMP:  79;

$$

TXZ248>255-210700-
DEEP SOUTH TEXAS

CITY           SKY/WX    TMP DP  RH WIND       PRES   REMARKS
BROWNSVILLE    CLEAR     74  70  87 CALM      29.93F
6HR MIN TEMP:  73; 6HR MAX TEMP:  80;

PORT ISABEL    LGT RAIN  77  71  82 E9        29.92F
6HR MIN TEMP:  76; 6HR MAX TEMP:  80; 6HR PCP:  0.02;

*SOUTH PADRE   MOCLDY    81  72  74 E14       29.92F
HARLINGEN      CLEAR     72  70  93 N3        29.93F
6HR MIN TEMP:  72; 6HR MAX TEMP:  77;



USA.gov is the U.S. government's official web portal to all federal, state and local government web resources and services.